HJ3GNC-13 Weather Reports


Display with metric or nautical units.
time (UTC)temp
F
wind
direction
speed
MPH
gust
MPH
rain 1hr
in
rain 24hr
in
rain mn
in
humidity
%
barometer
mb
20260507113456 50 0 0.0 0.0 0.00 0.00 0.00 97 1020.0
20260507111908 50 70 0.0 0.0 0.00 0.00 0.00 97 1020.0
20260507110319 50 70 0.0 0.0 0.00 0.00 0.00 96 1020.0
20260507104736 50 70 0.0 0.0 0.00 0.00 0.00 95 1020.0
20260507103156 50 80 0.0 0.0 0.00 0.00 0.00 94 1020.0
20260507101615 50 80 0.0 0.0 0.00 0.00 0.00 92 1020.0
20260507100035 50 102 0.0 0.0 0.00 0.00 0.00 90 1020.0
20260507094453 50 102 0.0 0.0 0.00 0.00 0.00 90 1020.0
20260507092910 50 98 0.0 0.0 0.00 0.00 0.00 90 1020.0
20260507091326 50 97 0.0 0.0 0.00 0.00 0.00 90 1020.0
20260507085740 52 350 0.0 0.0 0.00 0.00 0.00 93 1020.0
20260507084157 52 350 0.0 0.0 0.00 0.00 0.00 91 1020.0
20260507082614 52 350 0.0 0.0 0.00 0.00 0.00 91 1020.0
20260507081028 52 350 0.0 0.0 0.00 0.00 0.00 91 1020.0
20260507065142 52 60 0.0 0.0 0.00 0.00 0.00 91 1020.0
20260507063557 52 60 0.0 0.0 0.00 0.00 0.00 91 1020.0
20260507062014 52 60 0.0 0.0 0.00 0.00 0.00 90 1021.0
20260507060432 52 40 0.0 0.0 0.00 0.00 0.00 89 1021.0
20260507054850 52 40 0.0 0.0 0.00 0.00 0.00 88 1021.0
20260507053309 52 40 0.0 0.0 0.00 0.00 0.00 87 1021.0
20260507051726 52 20 0.0 0.0 0.00 0.00 0.00 86 1021.0
20260507015208 59 130 0.0 0.0 0.00 0.00 0.00 63 1021.0
20260507013624 59 130 0.0 0.0 0.00 0.00 0.00 63 1021.0
20260507012040 59 130 0.0 0.0 0.00 0.00 0.00 63 1020.0
20260506233017 60 129 0.0 0.0 0.00 0.00 0.00 85 1017.0
20260506231430 60 144 0.0 0.0 0.00 0.00 0.00 85 1016.0
20260506225829 60 144 0.0 0.0 0.00 0.00 0.00 85 1016.0
20260506224240 60 144 0.0 0.0 0.00 0.00 0.00 85 1016.0
20260506222648 60 157 0.0 0.0 0.00 0.00 0.00 85 1014.0
20260506221057 60 157 0.0 0.0 0.00 0.00 0.00 85 1014.0
20260506215508 60 157 0.0 0.0 0.00 0.00 0.00 85 1014.0
20260506212225 60 164 0.0 0.0 0.00 0.00 0.00 85 1014.0
20260506210602 60 164 0.0 0.0 0.00 0.00 0.00 85 1014.0
20260506205013 60 164 0.0 0.0 0.00 0.00 0.00 85 1014.0
20260506203430 60 164 0.0 0.0 0.00 0.00 0.00 85 1014.0
20260506201838 60 166 0.0 0.0 0.00 0.00 0.00 85 1014.0
20260506200242 60 166 0.0 0.0 0.00 0.00 0.00 85 1014.0
20260506194659 60 166 0.0 0.0 0.00 0.00 0.00 85 1014.0
20260506193114 60 166 0.0 0.0 0.00 0.00 0.00 85 1014.0
20260506191523 60 158 0.0 0.0 0.00 0.00 0.00 85 1015.0
20260506185920 60 158 0.0 0.0 0.00 0.00 0.00 84 1016.0
20260506184333 57 158 0.0 0.0 0.00 0.00 0.00 92 1016.0
20260506182748 57 132 0.0 0.0 0.00 0.00 0.00 92 1017.0
20260506181203 57 136 0.0 0.0 0.00 0.00 0.00 92 1017.0
20260506175549 57 136 0.0 0.0 0.00 0.00 0.00 92 1017.0
20260506174001 57 133 0.0 0.0 0.00 0.00 0.00 92 1018.0
20260506172415 57 100 0.0 0.0 0.00 0.00 0.00 92 1018.0
20260506170832 57 93 0.0 0.0 0.00 0.00 0.00 92 1018.0
20260506165247 57 93 0.0 0.0 0.00 0.00 0.00 92 1018.0
20260506163656 57 93 4.0 4.0 0.00 0.00 0.00 92 1018.0
20260506162046 57 93 0.0 0.0 0.00 0.00 0.00 92 1019.0
20260506160458 57 93 0.0 0.0 0.00 0.00 0.00 92 1019.0
20260506154906 57 93 0.0 0.0 0.00 0.00 0.00 92 1019.0
20260506153316 57 93 0.0 0.0 0.00 0.00 0.00 92 1019.0
20260506151643 57 88 0.0 0.0 0.00 0.00 0.00 92 1019.0
20260506135715 57 70 0.0 0.0 0.00 0.00 0.00 99 1019.0
20260506134131 55 70 0.0 0.0 0.00 0.00 0.00 99 1019.0
20260506132545 54 70 0.0 0.0 0.00 0.00 0.00 98 1019.0
20260506131000 54 0 0.0 0.0 0.00 0.00 0.00 98 1019.0
20260506125415 54 0 0.0 0.0 0.00 0.00 0.00 98 1019.0
20260506120648 54 60 0.0 0.0 0.00 0.00 0.00 98 1020.0
20260506115059 54 0 0.0 0.0 0.00 0.00 0.00 98 1020.0